Carroll, IA

5:11 AM CDT on March 26, 2017 (GMT -0500)
Neu

Weather History for KCIN - October, 2012

Change the Weather History Date:

Monday, October 8, 2012

  Actual Average Record
Temperature  
Mean Temperature 54 °F -  
Max Temperature 68 °F 64 °F 89 °F (2010)
Min Temperature 39 °F 41 °F 19 °F (2000)
Degree Days  
Heating Degree Days 12    
Growing Degree Days 4 (Base 50)    
Moisture  
Dew Point 30 °F    
Average Humidity 46    
Maximum Humidity 75    
Minimum Humidity 23    
Precipitation  
Precipitation 0.00 in - - ()
Sea Level Pressure  
Sea Level Pressure 29.86 in    
Wind  
Wind Speed 19 mph (SW)    
Max Wind Speed 29 mph    
Max Gust Speed 39 mph    
Visibility 10 miles    
Events      
Averages and records for this station are not official NWS values.
T = Trace of Precipitation, MM = Missing Value Source: NWS Daily Summary

Daily Weather History Graph

Daily Weather History Graph

Search for Another Location

Airport or City:

Trip Planner

Search our weather history database for the weather conditions in past years. The results will help you decide how hot, cold, wet, or windy it might be!

Date:

Astronomy

Oct. 08, 2012 Rise Set
Actual Time 7:24 AM CDT 6:48 PM CDT
Civil Twilight 6:56 AM CDT 7:15 PM CDT
Nautical Twilight 6:24 AM CDT 7:48 PM CDT
Astronomical Twilight 5:51 AM CDT 8:20 PM CDT
Moon No Moon Rise 2:44 PM CDT (10/8)
Length of Visible Light 12h 19m
Length of Day
11h 23m
Last Quarter, 46% of the Moon is Illuminated
Oct 8
Last Quarter
Oct 15
New
Oct 21
First Quarter
Oct 29
Full
Nov 6
Last Quarter

Hourly Weather History & Observations

Time (CDT) Temp. Windchill Dew Point Humidity Pressure Visibility Wind Dir Wind Speed Gust Speed Precip Events Conditions
12:15 AM 42.8 °F 35.1 °F 26.6 °F 53% 29.98 in 10.0 mi SSW 16.1 mph - N/A   Clear
12:35 AM 42.8 °F 35.1 °F 26.6 °F 53% 29.98 in 10.0 mi SW 16.1 mph - N/A   Clear
12:55 AM 42.8 °F 35.1 °F 26.6 °F 53% 29.98 in 10.0 mi SW 16.1 mph - N/A   Clear
1:15 AM 42.8 °F 35.1 °F 26.6 °F 53% 29.98 in 10.0 mi SSW 16.1 mph 21.9 mph N/A   Clear
1:35 AM 41.0 °F 32.2 °F 26.6 °F 57% 29.97 in 10.0 mi SW 18.4 mph - N/A   Clear
1:55 AM 41.0 °F 33.1 °F 28.4 °F 61% 29.97 in 10.0 mi SW 15.0 mph - N/A   Clear
2:15 AM 41.0 °F 32.2 °F 28.4 °F 61% 29.97 in 10.0 mi SW 18.4 mph - N/A   Clear
2:35 AM 41.0 °F 32.2 °F 30.2 °F 65% 29.96 in 10.0 mi SW 18.4 mph - N/A   Clear
2:55 AM 41.0 °F 31.6 °F 30.2 °F 65% 29.95 in 10.0 mi SW 20.7 mph - N/A   Clear
3:15 AM 41.0 °F 32.2 °F 30.2 °F 65% 29.95 in 10.0 mi SW 18.4 mph 26.5 mph N/A   Clear
3:35 AM 41.0 °F 32.5 °F 30.2 °F 65% 29.93 in 10.0 mi SSW 17.3 mph 25.3 mph N/A   Clear
3:55 AM 41.0 °F 31.9 °F 30.2 °F 65% 29.93 in 10.0 mi SW 19.6 mph - N/A   Clear
4:15 AM 41.0 °F 31.6 °F 32.0 °F 70% 29.92 in 10.0 mi SSW 20.7 mph - N/A   Clear
4:35 AM 41.0 °F 31.6 °F 32.0 °F 70% 29.92 in 10.0 mi SW 20.7 mph 27.6 mph N/A   Clear
4:55 AM 41.0 °F 31.9 °F 32.0 °F 70% 29.92 in 10.0 mi SSW 19.6 mph - N/A   Clear
5:15 AM 41.0 °F 31.6 °F 32.0 °F 70% 29.91 in 10.0 mi SSW 20.7 mph - N/A   Clear
5:35 AM 41.0 °F 31.6 °F 32.0 °F 70% 29.91 in 10.0 mi SSW 20.7 mph 29.9 mph N/A   Clear
5:55 AM 41.0 °F 31.6 °F 32.0 °F 70% 29.91 in 10.0 mi SW 20.7 mph 26.5 mph N/A   Clear
6:15 AM 39.2 °F 29.6 °F 32.0 °F 75% 29.91 in 10.0 mi SW 19.6 mph 26.5 mph N/A   Clear
6:35 AM 41.0 °F 31.1 °F 32.0 °F 70% 29.91 in 10.0 mi SW 23.0 mph - N/A   Clear
6:55 AM 39.2 °F 29.8 °F 32.0 °F 75% 29.91 in 10.0 mi SW 18.4 mph 25.3 mph N/A   Clear
7:15 AM 39.2 °F 29.6 °F 32.0 °F 75% 29.91 in 10.0 mi SW 19.6 mph - N/A   Clear
7:35 AM 39.2 °F 29.6 °F 32.0 °F 75% 29.90 in 10.0 mi SSW 19.6 mph 26.5 mph N/A   Clear
7:55 AM 41.0 °F 31.6 °F 32.0 °F 70% 29.90 in 10.0 mi SW 20.7 mph 26.5 mph N/A   Clear
8:15 AM 41.0 °F 31.1 °F 32.0 °F 70% 29.90 in 10.0 mi SW 23.0 mph - N/A   Clear
8:35 AM 41.0 °F 30.9 °F 32.0 °F 70% 29.90 in 10.0 mi SW 24.2 mph - N/A   Clear
8:55 AM 42.8 °F 34.0 °F 32.0 °F 66% 29.90 in 10.0 mi SW 20.7 mph 26.5 mph N/A   Clear
9:15 AM 44.6 °F 36.6 °F 32.0 °F 61% 29.90 in 10.0 mi SW 19.6 mph 26.5 mph N/A   Clear
9:35 AM 46.4 °F 38.5 °F 32.0 °F 57% 29.89 in 10.0 mi SSW 21.9 mph 27.6 mph N/A   Clear
9:55 AM 48.2 °F - 32.0 °F 54% 29.89 in 10.0 mi SSW 20.7 mph 27.6 mph N/A   Clear
10:15 AM 50.0 °F - 32.0 °F 50% 29.89 in 10.0 mi SW 21.9 mph - N/A   Clear
10:35 AM 53.6 °F - 32.0 °F 44% 29.88 in 10.0 mi SSW 21.9 mph - N/A   Scattered Clouds
10:55 AM 55.4 °F - 32.0 °F 41% 29.88 in 10.0 mi SW 21.9 mph 29.9 mph N/A   Mostly Cloudy
11:15 AM 59.0 °F - 30.2 °F 34% 29.87 in 10.0 mi SW 24.2 mph - N/A   Scattered Clouds
11:35 AM 59.0 °F - 30.2 °F 34% 29.86 in 10.0 mi SSW 26.5 mph - N/A   Clear
11:55 AM 60.8 °F - 30.2 °F 31% 29.86 in 10.0 mi SW 27.6 mph 34.5 mph N/A   Clear
12:15 PM 60.8 °F - 30.2 °F 31% 29.85 in 10.0 mi SW 25.3 mph 34.5 mph N/A   Clear
12:35 PM 64.4 °F - 30.2 °F 28% 29.84 in 10.0 mi SSW 26.5 mph 32.2 mph N/A   Clear
12:55 PM 62.6 °F - 30.2 °F 30% 29.84 in 10.0 mi SSW 25.3 mph 32.2 mph N/A   Clear
1:15 PM 62.6 °F - 30.2 °F 30% 29.83 in 10.0 mi SSW 23.0 mph 34.5 mph N/A   Clear
1:35 PM 64.4 °F - 30.2 °F 28% 29.82 in 10.0 mi SSW 21.9 mph 33.4 mph N/A   Clear
1:55 PM 66.2 °F - 30.2 °F 26% 29.81 in 10.0 mi SSW 28.8 mph 34.5 mph N/A   Clear
2:15 PM 66.2 °F - 28.4 °F 24% 29.80 in 10.0 mi SSW 25.3 mph 34.5 mph N/A   Clear
2:35 PM 68.0 °F - 28.4 °F 23% 29.79 in 10.0 mi SSW 28.8 mph 35.7 mph N/A   Clear
2:55 PM 68.0 °F - 28.4 °F 23% 29.79 in 10.0 mi SSW 25.3 mph 39.1 mph N/A   Clear
3:15 PM 66.2 °F - 28.4 °F 24% 29.77 in 10.0 mi SSW 28.8 mph 35.7 mph N/A   Clear
3:35 PM 66.2 °F - 28.4 °F 24% 29.77 in 10.0 mi SW 26.5 mph 33.4 mph N/A   Clear
3:55 PM 66.2 °F - 30.2 °F 26% 29.77 in 10.0 mi SSW 28.8 mph - N/A   Clear
4:15 PM 66.2 °F - 30.2 °F 26% 29.77 in 10.0 mi SW 21.9 mph 31.1 mph N/A   Clear
4:35 PM 66.2 °F - 28.4 °F 24% 29.76 in 10.0 mi SSW 25.3 mph - N/A   Clear
4:55 PM 66.2 °F - 28.4 °F 24% 29.77 in 10.0 mi SW 20.7 mph 28.8 mph N/A   Scattered Clouds
5:15 PM 66.2 °F - 28.4 °F 24% 29.76 in 10.0 mi SW 23.0 mph 28.8 mph N/A   Partly Cloudy
5:35 PM 66.2 °F - 28.4 °F 24% 29.76 in 10.0 mi SW 17.3 mph 24.2 mph N/A   Partly Cloudy
5:55 PM 66.2 °F - 28.4 °F 24% 29.76 in 10.0 mi SSW 17.3 mph 25.3 mph N/A   Scattered Clouds
6:15 PM 66.2 °F - 28.4 °F 24% 29.76 in 10.0 mi SSW 16.1 mph 23.0 mph N/A   Scattered Clouds
6:35 PM 64.4 °F - 28.4 °F 26% 29.76 in 10.0 mi SSW 18.4 mph - N/A   Scattered Clouds
6:55 PM 64.4 °F - 28.4 °F 26% 29.76 in 10.0 mi SSW 17.3 mph - N/A   Partly Cloudy
7:15 PM 64.4 °F - 30.2 °F 28% 29.76 in 10.0 mi SSW 16.1 mph 23.0 mph N/A   Clear
7:35 PM 62.6 °F - 30.2 °F 30% 29.76 in 10.0 mi SSW 13.8 mph 21.9 mph N/A   Clear
7:55 PM 62.6 °F - 30.2 °F 30% 29.76 in 10.0 mi SSW 15.0 mph 21.9 mph N/A   Clear
8:35 PM 60.8 °F - 32.0 °F 34% 29.77 in 10.0 mi SSW 15.0 mph 24.2 mph N/A   Clear
8:55 PM 60.8 °F - 32.0 °F 34% 29.77 in 10.0 mi SSW 15.0 mph 20.7 mph N/A   Clear
9:15 PM 60.8 °F - 32.0 °F 34% 29.78 in 10.0 mi SSW 17.3 mph - N/A   Clear
9:35 PM 59.0 °F - 32.0 °F 36% 29.79 in 10.0 mi SSW 13.8 mph 19.6 mph N/A   Clear
9:55 PM 57.2 °F - 32.0 °F 38% 29.81 in 10.0 mi West 12.7 mph - N/A   Clear
10:15 PM 55.4 °F - 32.0 °F 41% 29.81 in 10.0 mi West 9.2 mph 19.6 mph N/A   Clear
10:55 PM 50.0 °F - 30.2 °F 47% 29.81 in 10.0 mi SW 9.2 mph - N/A   Clear
11:35 PM 51.8 °F - 32.0 °F 47% 29.82 in 10.0 mi SW 8.1 mph 16.1 mph N/A   Clear